STARLINK-5364 (55491 NORAD) Tracking and Keplerian Element Data

This shows tracking and keplerian element data for the satellite.

Feedback or suggestion? Click here.




ElementValue
Catalog55491
NameSTARLINK-5364
Epoch Orbit831
Epoch Day85.15310665
Epoch Year2023
RAAN76.105
Inclination43.0016
Eccentricity0.0001717
Argument of Perigee252.4404
Mean Anonmoly107.6277
Mean Motion15.71352165
Decay Rate3.735E-05
L11 55491U 23015AU 23085.15310665 .00003735 00000+0 31923-4 0 9999
L22 55491 43.0016 76.1050 0001717 252.4404 107.6277 15.71352165 8314



Live tracking and technical data element details for STARLINK-5364 (NORAD 55491). STARLINK-5364 can be tracked NOW for your location showing map with azimuth and elevation plus other details from your city location.







IsCatalogInMostPopularTable: catalog: 55491, numindb: -1

Insert: records affected: 1


GetName: 55491 STARLINK-5364

Hit Count: inserted at: Tue, 28 Mar 2023 03:13:39 GMT